Regional Weather Roundup
Issued by NWS

Home | Current Version | Previous Version | Text Only | Print | Product List | Glossary On
Versions: 1 2 3 4 5 6 7 8 9 10 11 12 13 14 15 16 17 18 19 20 21 22 23 24 25 26 27 28 29 30 31 32 33 34 35 36 37 38 39 40 41 42 43 44 45 46 47 48 49 50
000
ASUS46 KSEW 290910
RWRWA

WASHINGTON REGIONAL WEATHER ROUNDUP
NATIONAL WEATHER SERVICE SEATTLE WA
100 AM PST SAT NOV 29 2014

NOTE:"FAIR" INDICATES FEW OR NO CLOUDS BELOW 12,000 FEET WITH NO
SIGNIFICANT WEATHER AND/OR OBSTRUCTIONS TO VISIBILITY.

WAZ505-507>509-291000-
SEATTLE, TACOMA, EVERETT, AND VICINITY

CITY           SKY/WX    TMP DP  RH WIND       PRES   REMARKS
EVERETT        LGT SNOW  33  31  92 N8        29.53F FOG
BOEING FIELD   MOCLDY    42  35  76 SW7       29.54S
RENTON         MOCLDY    40  36  86 S8        29.54R
SEATAC AIRPORT MOCLDY    39  33  79 SW13      29.53R
JBLM-MCCHORD   MOCLDY    37  37  99 S10       29.56S
PUYALLUP       NOT AVBL
JBLM-FT LEWIS  DRIZZLE   37  37  97 S7        29.56S
TACOMA NARROWS MOCLDY    39  33  79 S13G21    29.54S
$$

WAZ001-503-506-510-514-515-291000-
NORTH INTERIOR

CITY           SKY/WX    TMP DP  RH WIND       PRES   REMARKS
BELLINGHAM     CLOUDY    28  18  66 N16G23    29.56R WCI  16
FRIDAY HARBOR  CLOUDY    36  30  79 VRB7      29.55R
EASTSOUND      CLOUDY    32  25  74 NE12      29.56R WCI  23
PORT ANGELES   LGT SNOW  35  29  78 W9        29.54R
NAS WHIDBEY    MOCLDY    42  26  53 NW14      29.54R
BURLINGTON     CLOUDY    36  34  93 NW5       29.55R
$$

WAZ020-022-039-040-504-511-512-291000-
SOUTHWEST INTERIOR

CITY           SKY/WX    TMP DP  RH WIND       PRES   REMARKS
SHELTON        CLOUDY    36  32  85 SW10      29.53R
OLYMPIA        CLOUDY    38  35  89 S8        29.57S
CHEHALIS       CLOUDY    37  37 100 S5        29.59S
KELSO          MOCLDY    39  36  87 CALM      29.64F
VANCOUVER      LGT RAIN  43  36  76 NW6       29.64R
SCAPPOOSE, OR  CLOUDY    42  37  82 CALM      29.62F
PORTLAND, OR   LGT RAIN  43  40  89 NW9       29.64R
$$

WAZ021-516-517-291000-
WASHINGTON COAST

CITY           SKY/WX    TMP DP  RH WIND       PRES   REMARKS
FORKS          CLOUDY    35  32  88 W6        29.55S
HOQUIAM        LGT RAIN  40  34  79 NW10      29.58S
ASTORIA, OR    LGT RAIN  43  35  73 NW14      29.61R
$$

WAZ019-023-024-040-518-519-291000-
CASCADE MOUNTAINS AND COLUMBIA GORGE

CITY           SKY/WX    TMP DP  RH WIND       PRES   REMARKS
STAMPEDE PASS  NOT AVBL
TROUTDALE, OR  CLOUDY    44  39  82 NW6       29.63R
THE DALLES, OR MOCLDY    42  34  73 W6        29.54R
$$

WAZ026-027-041>044-520-521-291000-
EAST SLOPES

CITY           SKY/WX    TMP DP  RH WIND       PRES   REMARKS
OMAK           PTCLDY    20   9  62 N16       29.51R WCI   6
WENATCHEE      CLEAR     40  20  44 NW8       29.37R
ELLENSBURG     PTCLDY    36  25  64 NW16      29.41R
YAKIMA         CLEAR     38  22  52 SE3       29.42R
$$

WAZ028-034-035-291000-
COLUMBIA BASIN

CITY           SKY/WX    TMP DP  RH WIND       PRES   REMARKS
EPHRATA        CLEAR     32  24  72 N15       29.39R WCI  22
MOSES LAKE     CLEAR     34  26  72 N8        29.40R
PASCO          PTCLDY    47  34  60 W12       29.45R
HERMISTON, OR  CLOUDY    46  34  62 W22G30    29.48R
$$

WAZ036>038-291000-
NORTHEAST WASHINGTON

CITY           SKY/WX    TMP DP  RH WIND       PRES   REMARKS
SPOKANE GEIGER MOCLDY    39  36  89 W16       29.30R
SPOKANE FELTS  CLOUDY    44  36  73 W12G18    29.30R
FAIRCHILD AFB  CLOUDY    36  32  87 W16       29.31R
COEURDALENE,ID CLOUDY    45  37  76 W17G25    29.27R
DEER PARK      CLOUDY    41  33  73 SW12      29.29R
$$

WAZ029>033-291000-
SOUTHEAST WASHINGTON

CITY           SKY/WX    TMP DP  RH WIND       PRES   REMARKS
PULLMAN        LGT RAIN  44  41  89 W23G35    29.36R FOG
LEWISTON, ID   LGT RAIN  50  42  74 W7        29.36S
WALLA WALLA    CLOUDY    49  39  68 W22G29    29.42R
PENDLETON, OR  LGT RAIN  42  36  79 W26G35    29.45R
$$



USA.gov is the U.S. government's official web portal to all federal, state and local government web resources and services.